Regional Weather Roundup
Issued by NWS Northern Indiana

Home | Current Version | Previous Version | Graphics & Text | Print | Product List | Glossary On
Versions: 1 2 3 4 5 6 7 8 9 10 11 12 13 14 15 16 17 18 19 20 21 22 23 24 25 26 27 28 29 30 31 32 33 34 35 36 37 38 39 40 41 42 43 44 45 46 47 48 49 50
016
ASUS43 KIWX 072300
RWRIWX

KIWX WEATHER ROUNDUP
NATIONAL WEATHER SERVICE NORTHERN INDIANA
600 PM EST SUN FEB 07 2016

NOTE: "FAIR" INDICATES FEW OR NO CLOUDS BELOW 12,000 FEET WITH NO
SIGNIFICANT WEATHER AND/OR OBSTRUCTIONS TO VISIBILITY.

* THESE STATIONS ARE NOT UNDER NWS QUALITY CONTROL. THEY ALSO MAY NOT
  REPORT WEATHER SUCH AS PRECIPITATION OR FOG.

INZ001>027-080000-
NORTHERN INDIANA

CITY           SKY/WX    TMP DP  RH WIND       PRES   REMARKS
GARY*          MOCLDY    45  30  57 SW14G28   29.77R
SOUTH BEND     PTCLDY    42  32  67 SW13      29.76S
ELKHART*         N/A     45  32  61 SW15      29.76S
GOSHEN         CLOUDY    44  32  62 SW12      29.76R
ANGOLA*        MOCLDY    43  32  65 SW8       29.76R
FORT WAYNE     MOCLDY    45  30  55 SW12      29.79S
PERU/GRISSOM   CLOUDY    45  33  63 W14       29.77S

$$
INZ028>050-080000-
CENTRAL INDIANA

CITY           SKY/WX    TMP DP  RH WIND       PRES   REMARKS
LAFAYETTE      PTCLDY    45  32  60 W14G21    29.81R
KOKOMO*          N/A     46  32  57 W14       29.79S
MUNCIE*        MOCLDY    50  29  44 SW12      29.80S
INDIANAPOLIS   CLOUDY    50  27  40 SW18      29.81S

$$
MIZ043>046-050>051-056>058-064>065-071>073-077>080-080000-
SOUTHWEST LOWER MICHIGAN

CITY           SKY/WX    TMP DP  RH WIND       PRES   REMARKS
BATTLE CREEK   CLOUDY    43  30  60 SW12      29.74R
BENTON HARBOR  PTCLDY    42  32  67 SW15      29.74S
COLDWATER*     CLOUDY    43  30  60 SW10G17   29.75R
HILLSDALE*     CLOUDY    43  28  56 SW8       29.75R
HOLLAND        MOCLDY    41  32  70 SW15      29.71F
GRAND RAPIDS   CLOUDY    42  31  64 SW10      29.71S
KALAMAZOO      CLOUDY    44  31  60 SW10      29.74S
STURGIS*       CLOUDY    42  32  68 SW10      29.75R
THREE RIVERS*  CLOUDY    44  32  63 SW6       29.75R

$$
OHZ001>008-015>018-024>025-080000-
NORTHWEST OHIO

CITY           SKY/WX    TMP DP  RH WIND       PRES   REMARKS
DEFIANCE       PTCLDY    48  31  51 S12       29.79R
FINDLAY        CLOUDY    46  31  55 S14       29.80F
TOLEDO EXPRESS CLOUDY    48  29  47 S14G21    29.78S
TOLEDO METCALF CLOUDY    47  29  49 S12       29.80S
LIMA           CLOUDY    47  28  47 S10       29.81S

$$
AND FOR LAKE MICHIGAN COASTAL AND OPEN LAKE BUOY OBSERVATIONS

STATION/POSITION TEMP    WIND        PRES    VSBY  WAVE
                 AIR SEA DIR/SP/G                  HT/PER
                 (F)     (DEG/KT/KT) (MB)    (MI)  (FT/S)
CALUMET HARBOR    43     210/ 11/ 15 1006.6R
MICHIGAN CITY     42     210/ 16/ 19   N/A
BURNS HARBOR      44     230/ 13/ 17 1008.1R
SAINT JOSEPH      38     190/  9/ 11 1007.8F

$$
&&




USA.gov is the U.S. government's official web portal to all federal, state and local government web resources and services.